Location: Las Vegas
(36.1750°N, 115.1360°W)
Time: 07:30:15
(UTC-07:00)

Amateur Radio Satellites - All Passes

Search period start: 26 May 2016 07:00
Search period end: 27 May 2016 07:00
Location: Las Vegas, 36.1750°N, 115.1360°W

Satellite Date Start Highest point End Downlink Frequencies (MHz)
Time Altitude Azimuth
STRAND 1 26 May 07:01:18 07:06:21 71° 75° (ENE) 07:11:27 437.568
Cosmos 2504 26 May 07:04:30 07:09:46 18° 279° (W) 07:15:08 435.465 / 435.565
PRISM 26 May 07:11:18 07:13:14 13° 66° (ENE) 07:15:11 437.425
CUTE-I 26 May 07:14:29 07:19:51 77° 285° (WNW) 07:25:12 437.470
JUGNU 26 May 07:25:19 07:28:30 15° 173° (S) 07:31:41 437.505
DOVE 4 26 May 07:26:56 07:30:55 34° 97° (E) 07:34:44 437.250
BRITE-PL 26 May 07:34:42 07:39:25 37° 289° (WNW) 07:43:45 437.365/2234.400
M-CUBED/EXP-1 PRIME 26 May 07:50:01 07:51:48 14° 100° (E) 07:53:34 437.505
AIST 1 26 May 07:51:50 07:55:16 22° 76° (ENE) 07:58:39
NOAA 18 26 May 07:53:27 07:58:07 30° 293° (WNW) 08:02:48 137.9125
Cosmos 2499 26 May 07:58:36 08:02:09 13° 64° (ENE) 08:05:44 435.465 / 435.565
GOMX 1 26 May 08:07:47 08:12:00 34° 289° (WNW) 08:15:59 467.674
Cubesat XI-IV 26 May 08:08:27 08:12:44 25° 293° (WNW) 08:17:00 437.490
CINEMA 3 26 May 08:09:20 08:12:54 28° 96° (E) 08:16:28 145.822/145.860
NOAA 15 26 May 08:10:19 08:13:33 17° 296° (WNW) 08:16:46 137.62
AO-85 26 May 08:20:35 08:22:34 12° 319° (NW) 08:24:31 145.980
O/OREOS (USA 219) 26 May 08:27:50 08:28:51 11° 98° (E) 08:29:53 437.305
CANX-2 26 May 08:33:53 08:38:08 65° 101° (E) 08:42:24 2200.000
HO-68 26 May 08:36:34 08:43:39 60° 102° (ESE) 08:50:43 435.675
SEEDS 26 May 08:39:52 08:43:58 45° 99° (E) 08:48:03 437.485
PRISM 26 May 08:44:09 08:48:07 45° 260° (W) 08:52:07 437.425
STRAND 1 26 May 08:44:38 08:45:59 11° 269° (W) 08:47:19 437.568
GONETS M04 26 May 08:51:19 08:59:46 52° 78° (ENE) 09:08:08
PCSat 26 May 08:59:12 09:03:27 24° 107° (ESE) 09:07:42 145.827
Oscar 11 26 May 09:00:16 09:03:03 17° 94° (E) 09:05:50 145.826/435.025
CUTE 1.7 + AOD 2 26 May 09:01:27 09:05:43 68° 284° (WNW) 09:09:58 437.475
DOVE 4 26 May 09:05:28 09:08:19 17° 293° (WNW) 09:11:05 437.250
CUBEBUG 2 26 May 09:08:59 09:12:56 41° 99° (E) 09:16:55 437.445
ZACube-1 26 May 09:11:05 09:14:06 19° 95° (E) 09:17:09 437.345
JUGNU 26 May 09:13:19 09:16:44 16° 184° (S) 09:20:10 437.505
SRMSAT 26 May 09:16:07 09:18:56 14° 171° (S) 09:21:45 437.500
UNISAT 6 26 May 09:17:32 09:20:20 17° 68° (ENE) 09:23:07 437.425
AUBIESAT-1 26 May 09:18:06 09:21:08 34° 291° (WNW) 09:24:09 437.475
M-CUBED/EXP-1 PRIME 26 May 09:23:46 09:26:24 23° 294° (WNW) 09:29:01 437.505
TIGRISAT 26 May 09:25:16 09:28:23 19° 69° (ENE) 09:31:28 435.000
COMPASS 1 26 May 09:28:49 09:33:00 63° 284° (WNW) 09:37:10 437.405
AIST 1 26 May 09:29:13 09:32:46 25° 271° (W) 09:36:15
AAUSAT CUBESAT 2 26 May 09:32:52 09:37:04 72° 283° (WNW) 09:41:14 437.432
UWE-3 26 May 09:40:40 09:44:50 69° 102° (ESE) 09:49:03 435.000/436.395/437.385
SO-50 26 May 09:44:45 09:49:24 60° 58° (ENE) 09:53:51 436.795
CINEMA 3 26 May 09:46:54 09:49:52 19° 291° (WNW) 09:52:50 145.822/145.860
Cosmos 2499 26 May 09:48:01 09:56:39 73° 82° (E) 10:05:32 435.465 / 435.565
FUNcube-1 26 May 09:49:08 09:53:14 51° 100° (E) 09:57:22 145.935
ANTELSAT 26 May 09:57:12 10:01:24 47° 74° (ENE) 10:05:34 437.575/2403.000
O/OREOS (USA 219) 26 May 10:03:09 10:07:40 60° 292° (WNW) 10:12:10 437.305
DELFI C3 26 May 10:15:23 10:19:22 59° 100° (E) 10:23:21 145.870
SEEDS 26 May 10:17:10 10:19:15 13° 293° (WNW) 10:21:20 437.485
DUCHIFAT 1 26 May 10:20:27 10:22:22 13° 66° (ENE) 10:24:16 145.980
HO-68 26 May 10:25:19 10:30:48 25° 299° (WNW) 10:36:19 435.675
Oscar 11 26 May 10:35:18 10:39:17 36° 288° (WNW) 10:43:14 145.826/435.025
PCSat 26 May 10:41:27 10:46:33 41° 302° (WNW) 10:51:41 145.827
BUGSAT 1 26 May 10:45:22 10:46:41 11° 65° (ENE) 10:48:00 437.445
ZACube-1 26 May 10:46:46 10:50:23 29° 288° (WNW) 10:54:04 437.345
CUBEBUG 2 26 May 10:47:04 10:49:12 14° 293° (WNW) 10:51:22 437.445
GONETS M04 26 May 10:48:54 10:56:04 30° 276° (W) 11:03:14
UNISAT 6 26 May 10:52:41 10:56:45 37° 262° (W) 11:00:47 437.425
BEESAT 3 26 May 10:53:19 10:56:18 21° 111° (ESE) 10:59:18 437.485
POPSAT HIP 1 26 May 10:54:40 10:58:33 35° 72° (ENE) 11:02:24 437.405
QB50P1 26 May 10:55:11 10:59:05 36° 72° (ENE) 11:02:59 145.935-145.965
QB50P2 26 May 10:56:52 11:00:51 40° 73° (ENE) 11:04:50 145.880/145.840
POLYITAN 1 26 May 10:59:18 11:03:18 41° 73° (ENE) 11:07:17 437.675
TIGRISAT 26 May 11:00:55 11:04:51 32° 262° (W) 11:08:44 435.000
SRMSAT 26 May 11:03:52 11:07:19 16° 182° (S) 11:10:45 437.500
JUGNU 26 May 11:03:59 11:04:57 10° 194° (SSW) 11:05:55 437.505
HUMSAT D 26 May 11:07:09 11:11:19 76° 282° (WNW) 11:15:30 437.325/437.525
NANOSAT C BR1 26 May 11:14:09 11:18:18 59° 75° (ENE) 11:22:28 145.865
DANDE 26 May 11:15:38 11:18:06 13° 77° (ENE) 11:20:49 436.750
50 SAT 26 May 11:17:11 11:19:09 14° 94° (E) 11:21:06 437.505
SO-50 26 May 11:27:29 11:29:15 12° 254° (WSW) 11:31:00 436.795
FUNcube-1 26 May 11:27:33 11:29:01 12° 294° (WNW) 11:30:30 145.935
AISAT 26 May 11:28:58 11:32:15 20° 95° (E) 11:35:29 437.250
CUSAT 1 26 May 11:30:38 11:36:18 50° 91° (E) 11:43:21 437.405
ANTELSAT 26 May 11:36:24 11:38:20 13° 267° (W) 11:40:14 437.575/2403.000
Cosmos 2499 26 May 11:42:50 11:48:54 22° 278° (W) 11:55:06 435.465 / 435.565
UKube-1 26 May 11:44:49 11:47:53 19° 95° (E) 11:50:56 .
BEESAT 2 26 May 11:52:17 11:56:10 59° 116° (ESE) 12:00:05 435.950
DUCHIFAT 1 26 May 11:53:33 11:57:37 47° 260° (W) 12:01:42 145.980
ESTCUBE 1 26 May 12:00:26 12:04:59 71° 101° (ESE) 12:09:30 437.505/2401.250
JAS-2 26 May 12:16:31 12:23:27 52° 69° (ENE) 12:30:56 435.910
BUGSAT 1 26 May 12:17:27 12:21:35 55° 260° (W) 12:25:41 437.445
CUBEBUG 1 26 May 12:25:13 12:29:38 88° 283° (WNW) 12:33:58 437.445
DX 1 26 May 12:27:53 12:32:16 79° 103° (ESE) 12:36:35 434.975-435.025
VELOX 1 26 May 12:28:28 12:32:55 85° 286° (WNW) 12:37:19 145.980
BEESAT 3 26 May 12:30:26 12:33:49 27° 306° (NW) 12:37:14 437.485
POPSAT HIP 1 26 May 12:31:44 12:34:24 16° 266° (W) 12:37:04 437.405
QB50P1 26 May 12:32:22 12:34:57 16° 266° (W) 12:37:32 145.935-145.965
QB50P2 26 May 12:34:31 12:36:48 14° 267° (W) 12:39:04 145.880/145.840
POLYITAN 1 26 May 12:37:05 12:39:15 14° 267° (W) 12:41:26 437.675
50 SAT 26 May 12:49:38 12:52:56 31° 287° (WNW) 12:56:15 437.505
SRMSAT 26 May 12:53:42 12:55:40 12° 192° (SSW) 12:57:38 437.500
DANDE 26 May 12:54:33 12:59:34 70° 281° (WNW) 13:06:19 436.750
SPROUT 26 May 12:58:29 13:02:45 84° 102° (ESE) 13:07:00 437.525
AISAT 26 May 13:04:51 13:08:44 31° 289° (WNW) 13:12:34 437.250
Oscar 19 26 May 13:09:42 13:14:51 67° 74° (ENE) 13:20:01 437.125/150
CUSAT 1 26 May 13:13:43 13:18:50 26° 293° (WNW) 13:24:52 437.405
UKube-1 26 May 13:20:07 13:23:58 31° 289° (WNW) 13:27:46 .
Gurwin Techsat 1B 26 May 13:22:11 13:26:58 35° 70° (ENE) 13:31:46 435.225
TISAT 1 26 May 13:27:46 13:31:46 44° 99° (E) 13:35:44 437.305
BEESAT 2 26 May 13:32:39 13:34:23 12° 313° (NW) 13:36:07 435.950
ESTCUBE 1 26 May 13:40:28 13:41:09 10° 297° (WNW) 13:41:50 437.505/2401.250
ITAMSAT 1 26 May 13:49:33 13:53:42 25° 67° (ENE) 13:57:49 435.822/435.867
AIST 2 26 May 13:50:34 13:54:39 69° 117° (ESE) 13:58:46 435.215
BEESAT 26 May 14:02:03 14:05:25 19° 94° (E) 14:08:46 436.000
JAS-2 26 May 14:02:36 14:08:40 29° 267° (W) 14:15:11 435.910
Cosmos 2491 26 May 14:06:34 14:13:03 22° 68° (ENE) 14:19:28 435.465 / 435.565
AO-7 26 May 14:37:20 14:44:51 40° 63° (ENE) 14:52:25 29.400- 29.500
Oscar 19 26 May 14:52:28 14:54:35 12° 269° (W) 14:56:42 437.125/150
Gurwin Techsat 1B 26 May 15:02:38 15:06:56 25° 265° (W) 15:11:15 435.225
TISAT 1 26 May 15:05:01 15:07:01 13° 294° (WNW) 15:09:00 437.305
SWISSCUBE 26 May 15:08:42 15:13:29 73° 285° (WNW) 15:18:16 437.505
AO-85 26 May 15:11:02 15:15:30 47° 56° (NE) 15:19:34 145.980
ITUPSAT 1 26 May 15:14:10 15:18:58 73° 285° (WNW) 15:23:44 437.325
KKS-1 26 May 15:18:58 15:21:06 13° 93° (E) 15:23:13 437.445
RS-15 26 May 15:19:44 15:24:37 14° 96° (E) 15:29:34 29.354- 29.394
MOZHAYETS 4 26 May 15:25:30 15:27:22 12° 92° (E) 15:29:15
ITAMSAT 1 26 May 15:28:15 15:32:56 35° 262° (W) 15:37:40 435.822/435.867
AIST 2 26 May 15:32:01 15:33:34 12° 314° (NW) 15:35:08 435.215
BEESAT 26 May 15:38:52 15:43:18 39° 288° (WNW) 15:47:43 436.000
HORYU 2 26 May 15:40:40 15:43:35 17° 67° (ENE) 15:46:29 437.375
STARS 26 May 15:57:16 16:00:16 18° 95° (E) 16:03:14 437.465
YUBILEINY 26 May 15:58:45 16:07:08 56° 90° (E) 16:15:31 435.215
Cosmos 2491 26 May 16:01:56 16:10:38 70° 267° (W) 16:19:14 435.465 / 435.565
AO-7 26 May 16:29:48 16:37:29 42° 260° (W) 16:45:15 29.400- 29.500
CUBESAT XI-V 26 May 16:49:08 16:49:21 10° 90° (E) 16:49:33 437.345
AO-85 26 May 16:53:10 16:55:23 14° 254° (WSW) 16:57:30 145.980
KKS-1 26 May 16:53:38 16:57:53 47° 287° (WNW) 17:02:07 437.445
CUTE-I 26 May 16:56:29 16:59:29 16° 63° (ENE) 17:02:31 437.470
MOZHAYETS 4 26 May 17:00:18 17:04:49 55° 286° (WNW) 17:09:21
BRITE-PL 26 May 17:04:14 17:08:25 22° 66° (ENE) 17:12:39 437.365/2234.400
HORYU 2 26 May 17:15:44 17:19:50 37° 261° (W) 17:23:57 437.375
RS-15 26 May 17:23:36 17:34:45 75° 115° (ESE) 17:46:35 29.354- 29.394
LilacSat-2 26 May 17:25:09 17:27:49 18° 70° (ENE) 17:30:29 437.200
STARS 26 May 17:32:44 17:36:41 34° 289° (WNW) 17:40:35 437.465
GOMX 1 26 May 17:35:09 17:39:04 20° 67° (ENE) 17:42:57 467.674
NOAA 18 26 May 17:36:19 17:41:31 48° 71° (ENE) 17:46:45 137.9125
Cosmos 2504 26 May 17:44:26 17:51:34 73° 93° (E) 17:59:02 435.465 / 435.565
NOAA 15 26 May 17:46:20 17:51:36 70° 74° (ENE) 17:56:54 137.62
Cubesat XI-IV 26 May 17:47:18 17:52:21 47° 72° (ENE) 17:57:26 437.490
PCSat 26 May 17:50:18 17:52:50 13° 46° (NE) 17:55:20 145.827
YUBILEINY 26 May 17:57:06 18:04:17 28° 289° (WNW) 18:11:32 435.215
CUBESAT XI-V 26 May 18:22:26 18:27:08 68° 285° (WNW) 18:31:47 437.345
DOVE 4 26 May 18:28:51 18:33:26 31° 71° (ENE) 18:37:53 437.250
AUBIESAT-1 26 May 18:29:21 18:30:55 12° 63° (ENE) 18:32:28 437.475
CUTE-I 26 May 18:33:45 18:38:59 61° 259° (WSW) 18:44:15 437.470
M-CUBED/EXP-1 PRIME 26 May 18:33:46 18:36:33 17° 65° (ENE) 18:39:12 437.505
O/OREOS (USA 219) 26 May 18:38:03 18:40:35 15° 58° (ENE) 18:43:06 437.305
BRITE-PL 26 May 18:41:04 18:46:26 49° 262° (W) 18:51:58 437.365/2234.400
LilacSat-2 26 May 18:58:47 19:01:57 25° 264° (W) 19:05:06 437.200
HO-68 26 May 19:02:41 19:08:56 34° 65° (ENE) 19:15:11 435.675
CINEMA 3 26 May 19:08:20 19:12:00 22° 70° (ENE) 19:15:34 145.822/145.860
GOMX 1 26 May 19:11:25 19:16:43 50° 261° (W) 19:22:00 467.674
STRAND 1 26 May 19:14:52 19:19:22 30° 97° (E) 19:23:51 437.568
NOAA 18 26 May 19:18:33 19:22:23 19° 266° (W) 19:26:13 137.9125
CANX-2 26 May 19:24:12 19:27:55 31° 72° (ENE) 19:31:39 2200.000
Cubesat XI-IV 26 May 19:29:00 19:32:38 19° 266° (W) 19:36:17 437.490
SEEDS 26 May 19:29:33 19:32:47 22° 70° (ENE) 19:36:03 437.485
NOAA 15 26 May 19:29:48 19:31:49 12° 269° (W) 19:33:51 137.62
PCSat 26 May 19:31:32 19:36:59 89° 66° (ENE) 19:42:23 145.827
RS-15 26 May 19:38:17 19:48:21 34° 319° (NW) 19:58:56 29.354- 29.394
Cosmos 2504 26 May 19:41:16 19:45:46 17° 293° (WNW) 19:50:25 435.465 / 435.565
CUTE 1.7 + AOD 2 26 May 19:51:11 19:55:18 58° 75° (ENE) 19:59:27 437.475
AUBIESAT-1 26 May 20:00:56 20:05:04 51° 255° (WSW) 20:08:56 437.475
CUBEBUG 2 26 May 20:04:45 20:08:25 26° 71° (ENE) 20:12:00 437.445
ZACube-1 26 May 20:06:16 20:07:38 11° 66° (ENE) 20:08:59 437.345
DOVE 4 26 May 20:06:32 20:11:01 28° 264° (W) 20:15:25 437.250
M-CUBED/EXP-1 PRIME 26 May 20:06:54 20:10:52 35° 256° (WSW) 20:14:35 437.505
BEESAT 2 26 May 20:13:40 20:16:17 17° 49° (NE) 20:18:54 435.950
O/OREOS (USA 219) 26 May 20:15:57 20:20:15 48° 254° (WSW) 20:24:31 437.305
COMPASS 1 26 May 20:16:37 20:20:40 57° 75° (ENE) 20:24:45 437.405
AIST 1 26 May 20:19:14 20:21:49 15° 86° (E) 20:24:23
AAUSAT CUBESAT 2 26 May 20:20:14 20:24:11 49° 75° (ENE) 20:28:12 437.432
PRISM 26 May 20:28:33 20:32:10 28° 97° (E) 20:35:44 437.425
UWE-3 26 May 20:35:02 20:39:04 39° 73° (ENE) 20:43:01 435.000/436.395/437.385
FUNcube-1 26 May 20:42:22 20:46:00 28° 71° (ENE) 20:49:36 145.935
CINEMA 3 26 May 20:44:38 20:48:56 32° 263° (W) 20:53:07 145.822/145.860
BEESAT 3 26 May 20:49:26 20:53:23 70° 60° (ENE) 20:57:18 437.485
HO-68 26 May 20:49:47 20:56:27 42° 261° (W) 21:03:08 435.675
STRAND 1 26 May 20:54:04 20:58:25 28° 292° (WNW) 21:02:47 437.568
DELFI C3 26 May 20:59:15 21:02:24 23° 70° (ENE) 21:05:34 145.870
CANX-2 26 May 21:00:56 21:03:48 18° 266° (W) 21:06:41 2200.000
SEEDS 26 May 21:04:55 21:08:21 25° 264° (W) 21:11:48 437.485
Oscar 11 26 May 21:26:44 21:31:00 67° 260° (W) 21:35:17 145.826/435.025
PHONESAT 2.4 26 May 21:29:08 21:31:42 23° 148° (SSE) 21:34:17 2401.200-2431.200
ISS 26 May 21:35:25 21:38:40 75° 319° (NW) 21:41:56 145.825
ZACube-1 26 May 21:39:17 21:43:27 53° 260° (W) 21:47:34 437.345
CUBEBUG 2 26 May 21:41:26 21:44:58 23° 264° (W) 21:48:26 437.445
GONETS M04 26 May 21:48:25 21:57:06 66° 92° (E) 22:05:44
BEESAT 2 26 May 21:50:34 21:54:18 39° 245° (WSW) 21:58:00 435.950
ANTELSAT 26 May 21:53:28 21:54:59 12° 92° (E) 21:56:29 437.575/2403.000
AIST 1 26 May 21:54:58 21:59:01 37° 281° (W) 22:03:08
DANDE 26 May 21:55:06 22:00:03 17° 62° (ENE) 22:04:46 436.750
HUMSAT D 26 May 21:55:41 21:59:38 49° 74° (ENE) 22:03:34 437.325/437.525
AAUSAT CUBESAT 2 26 May 21:58:58 21:59:57 11° 269° (W) 22:00:56 437.432
RS-15 26 May 22:00:02 22:06:22 15° 353° (N) 22:12:50 29.354- 29.394
PRISM 26 May 22:04:10 22:07:16 20° 292° (WNW) 22:10:20 437.425
CUSAT 1 26 May 22:09:01 22:15:57 35° 71° (ENE) 22:21:49 437.405
UWE-3 26 May 22:13:10 22:15:38 15° 267° (W) 22:18:06 435.000/436.395/437.385
AIST 2 26 May 22:14:58 22:18:09 21° 51° (NE) 22:21:18 435.215
FUNcube-1 26 May 22:19:07 22:22:14 20° 265° (W) 22:25:19 145.935
Cosmos 2499 26 May 22:21:45 22:28:46 61° 92° (E) 22:36:15 435.465 / 435.565
AISAT 26 May 22:24:48 22:27:10 14° 65° (ENE) 22:29:31 437.250
DELFI C3 26 May 22:34:07 22:37:10 21° 265° (W) 22:40:15 145.870
UKube-1 26 May 22:38:14 22:40:01 12° 65° (ENE) 22:41:47 .
UNISAT 6 26 May 22:46:26 22:50:39 51° 100° (E) 22:54:55 437.425
TIGRISAT 26 May 22:54:17 22:58:31 60° 101° (E) 23:02:49 435.000
ESTCUBE 1 26 May 22:57:11 23:01:28 45° 73° (ENE) 23:05:48 437.505/2401.250
NANOSAT C BR1 26 May 23:03:34 23:04:52 11° 92° (E) 23:06:10 145.865
PHONESAT 2.4 26 May 23:05:09 23:08:17 67° 343° (NNW) 23:11:24 2401.200-2431.200
ISS 26 May 23:14:12 23:15:36 12° 336° (NNW) 23:16:59 145.825
CUBEBUG 1 26 May 23:18:10 23:22:28 53° 74° (ENE) 23:26:49 437.445
DX 1 26 May 23:20:33 23:24:45 47° 73° (ENE) 23:28:58 434.975-435.025
VELOX 1 26 May 23:22:47 23:27:10 60° 74° (ENE) 23:31:34 145.980
50 SAT 26 May 23:24:40 23:28:16 72° 76° (ENE) 23:31:54 437.505
ANTELSAT 26 May 23:27:45 23:31:56 50° 286° (WNW) 23:36:09 437.575/2403.000
HUMSAT D 26 May 23:34:42 23:35:30 10° 268° (W) 23:36:18 437.325/437.525
DANDE 26 May 23:35:42 23:44:13 83° 81° (E) 23:51:43 436.750
DUCHIFAT 1 26 May 23:40:28 23:44:10 30° 97° (E) 23:47:51 145.980
GONETS M04 26 May 23:47:44 23:54:31 24° 290° (WNW) 00:01:19
SPROUT 26 May 23:49:15 23:53:20 43° 73° (ENE) 23:57:24 437.525
CUSAT 1 26 May 23:51:07 23:58:04 40° 272° (W) 00:03:55 437.405
AIST 2 26 May 23:52:57 23:56:41 32° 246° (WSW) 00:00:22 435.215
SO-50 26 May 23:56:05 00:00:35 38° 113° (ESE) 00:05:06 436.795
AISAT 26 May 23:58:52 00:03:11 49° 260° (W) 00:07:32 437.250
BUGSAT 1 27 May 00:02:27 00:05:44 24° 96° (E) 00:08:59 437.445
UKube-1 27 May 00:11:20 00:15:34 53° 259° (W) 00:19:49 .
RS-15 27 May 00:16:23 00:25:39 24° 30° (NNE) 00:34:55 29.354- 29.394
Cosmos 2499 27 May 00:17:11 00:22:29 21° 292° (WNW) 00:28:03 435.465 / 435.565
TISAT 1 27 May 00:17:11 00:20:35 24° 70° (ENE) 00:23:59 437.305
POPSAT HIP 1 27 May 00:17:16 00:21:28 83° 284° (WNW) 00:25:39 437.405
QB50P1 27 May 00:17:45 00:21:58 80° 282° (WNW) 00:26:09 145.935-145.965
QB50P2 27 May 00:19:46 00:23:58 71° 285° (WNW) 00:28:09 145.880/145.840
POLYITAN 1 27 May 00:22:14 00:26:25 70° 284° (WNW) 00:30:35 437.675
UNISAT 6 27 May 00:25:07 00:26:56 12° 294° (WNW) 00:28:44 437.425
TIGRISAT 27 May 00:33:43 00:34:42 11° 295° (WNW) 00:35:41 435.000
ESTCUBE 1 27 May 00:36:04 00:38:29 14° 267° (W) 00:40:55 437.505/2401.250
NANOSAT C BR1 27 May 00:36:48 00:40:51 48° 286° (WNW) 00:44:52 145.865
PHONESAT 2.4 27 May 00:42:22 00:45:18 35° 359° (N) 00:48:12 2401.200-2431.200
CUBEBUG 1 27 May 00:57:28 00:59:02 12° 268° (W) 01:00:37 437.445
DX 1 27 May 00:59:06 01:01:09 13° 267° (W) 01:03:13 434.975-435.025
VELOX 1 27 May 01:03:07 01:03:58 10° 269° (W) 01:04:48 145.980
BEESAT 27 May 01:06:29 01:09:30 17° 65° (ENE) 01:12:31 436.000
JAS-2 27 May 01:14:40 01:21:57 57° 99° (E) 01:28:24 435.910
DUCHIFAT 1 27 May 01:16:43 01:19:38 19° 292° (WNW) 01:22:32 145.980
DANDE 27 May 01:20:35 01:25:54 19° 280° (W) 01:30:54 436.750
Oscar 19 27 May 01:24:29 01:28:56 29° 96° (E) 01:33:20 437.125/150
SPROUT 27 May 01:27:19 01:29:28 13° 267° (W) 01:31:36 437.525
SO-50 27 May 01:37:06 01:41:09 25° 310° (NW) 01:45:12 436.795
BUGSAT 1 27 May 01:37:53 01:40:59 22° 291° (WNW) 01:44:04 437.445
Gurwin Techsat 1B 27 May 01:41:57 01:45:23 17° 93° (E) 01:48:47 435.225
TISAT 1 27 May 01:52:41 01:56:08 24° 264° (W) 01:59:35 437.305
SWISSCUBE 27 May 02:12:16 02:17:01 86° 255° (WSW) 02:21:48 437.505
YUBILEINY 27 May 02:12:59 02:19:40 24° 69° (ENE) 02:26:20 435.215
ITUPSAT 1 27 May 02:18:01 02:22:47 85° 258° (WSW) 02:27:34 437.325
PHONESAT 2.4 27 May 02:19:14 02:22:20 58° 16° (NNE) 02:25:25 2401.200-2431.200
RS-15 27 May 02:28:34 02:40:55 70° 57° (ENE) 02:53:08 29.354- 29.394
BEESAT 27 May 02:42:21 02:46:54 45° 261° (W) 02:51:27 436.000
AO-7 27 May 02:44:47 02:48:04 13° 90° (E) 02:51:20 29.400- 29.500
STARS 27 May 02:52:41 02:54:32 13° 65° (ENE) 02:56:25 437.465
JAS-2 27 May 03:00:32 03:06:19 26° 298° (WNW) 03:11:42 435.910
Oscar 19 27 May 03:03:44 03:08:09 29° 291° (WNW) 03:12:33 437.125/150
Cosmos 2491 27 May 03:04:36 03:11:42 28° 83° (E) 03:18:48 435.465 / 435.565
Gurwin Techsat 1B 27 May 03:20:26 03:25:34 51° 288° (WNW) 03:30:42 435.225
Cosmos 2504 27 May 03:39:43 03:46:19 24° 71° (ENE) 03:53:06 435.465 / 435.565
ITAMSAT 1 27 May 03:43:06 03:48:20 81° 285° (WNW) 03:53:34 435.822/435.867
KKS-1 27 May 03:48:29 03:52:57 74° 257° (WSW) 03:57:26 437.445
PHONESAT 2.4 27 May 03:56:13 03:58:58 28° 211° (SSW) 04:01:42 2401.200-2431.200
MOZHAYETS 4 27 May 03:59:07 04:03:40 81° 257° (WSW) 04:08:15
ISS 27 May 04:05:24 04:08:28 37° 36° (NE) 04:11:31 145.825
YUBILEINY 27 May 04:08:27 04:17:07 67° 268° (W) 04:25:47 435.215
STARS 27 May 04:26:05 04:30:25 54° 260° (W) 04:34:45 437.465
AO-7 27 May 04:33:28 04:41:53 79° 106° (ESE) 04:50:16 29.400- 29.500
RS-15 27 May 04:42:16 04:52:26 32° 257° (WSW) 05:02:31 29.354- 29.394
Cosmos 2491 27 May 04:59:19 05:07:57 56° 281° (W) 05:16:36 435.465 / 435.565
HORYU 2 27 May 05:08:53 05:13:09 47° 100° (E) 05:17:26 437.375
AO-85 27 May 05:21:38 05:26:32 35° 112° (ESE) 05:31:25 145.980
CUBESAT XI-V 27 May 05:22:38 05:27:18 85° 76° (ENE) 05:32:01 437.345
Cosmos 2504 27 May 05:31:49 05:40:13 67° 267° (W) 05:48:58 435.465 / 435.565
ISS 27 May 05:42:27 05:44:41 17° 231° (SW) 05:46:55 145.825
NOAA 18 27 May 06:01:29 06:05:57 25° 96° (E) 06:10:23 137.9125
NOAA 15 27 May 06:04:36 06:09:20 32° 97° (E) 06:14:01 137.62
Cubesat XI-IV 27 May 06:07:45 06:11:59 23° 95° (E) 06:16:12 437.490
AO-7 27 May 06:27:48 06:33:43 22° 304° (NW) 06:39:40 29.400- 29.500
STRAND 1 27 May 06:28:12 06:32:43 33° 70° (ENE) 06:37:15 437.568
LilacSat-2 27 May 06:34:08 06:37:41 38° 99° (E) 06:41:12 437.200
HORYU 2 27 May 06:46:57 06:49:17 14° 295° (WNW) 06:51:38 437.375
BRITE-PL 27 May 06:49:19 06:54:25 75° 101° (E) 06:59:03 437.365/2234.400
